ROMMA est une association bénévole à but non lucratif. Votre soutien est indispensable : ADHERER à ROMMA ou FAIRE un DON

Val-d'Arly - (73, Savoie)

Beaufortain (2050 m)   Longitude: 06° 35' 21" E   Latitude: 45° 46' 53" N Station romma n°118
 

Détail journalier du     <<     >>

Température Humidité Vent Dir Rafale Dir. rafale Ensol.
Heure (°C) (%) (km/h) (km/h) (min)
01:00 -1.5565O13OSO0
02:00 -0.9445SO15SSO0
03:00 -0.9442O6O0
04:00 -0.5392NE6O0
05:00 -0.3372N8NE0
06:00 -0.4352SSO10SO0
07:00 1.1286E15E0
08:00 2.32210SSE19ESE50
09:00 3.3204SO13O60
10:00 2.8196NO13ONO60
11:00 2.9266N13NNO60
12:00 5.4183N13NO60
13:00 5.7252ENE5ENE60
14:00 6.8302ENE6ENE60
15:00 5.4375SSO10SSO60
16:00 5.8326OSO11OSO60
17:00 5.9284SO13O60
18:00 5.2293SE13OSO60
19:00 4.3316S24SO20
20:00 4.22519SSO43SSO0
21:00 3.82621SSO37SSO0
22:00 4.32117SSO31S0
23:00 4.2219SSO19S0
minuit 3.3265SSO16SSO0

Graphique du 21-03-2019

 

Serveur OMMA